Theta_e
347 349 349 349 349 348 345 343 345 344 344 343 344 343 343 343 344 343 343 342 343 350 351 352 351 350 344 348 343 342 341 340 340 340 341 340 340 342 340 340 341 339 341 344 343 344 344 344 343 344 346 345 347 348 347 342 346 343 343 344 342 340
348 349 348 348 348 348 348 345 347 347 346 348 344 343 345 349 345 349 341 346 349 348 348 350 350 346 349 348 346 342 341 341 340 340 340 339 339 340 340 340 338 340 343 343 343 347 343 343 343 345 344 345 344 343 346 345 344 344 342 343 343 346
350 350 349 347 347 347 346 348 348 348 349 344 345 346 345 345 345 345 345 345 347 349 349 349 348 345 347 341 344 341 341 341 341 339 339 339 340 340 341 342 341 343 342 342 344 340 343 340 344 343 343 342 342 341 344 346 344 342 342 343 343 349
349 350 348 348 347 347 348 350 348 349 347 344 344 344 345 345 344 345 346 349 349 349 349 349 343 341 342 347 346 342 340 342 342 341 340 344 342 342 341 341 342 341 343 345 344 341 341 342 341 345 344 342 340 341 342 344 341 341 342 341 341 347
349 350 348 347 348 347 350 348 348 348 343 340 341 341 341 343 344 345 345 346 345 347 349 348 348 347 347 347 346 347 346 347 347 347 342 348 347 346 346 344 344 342 342 342 342 343 343 342 344 344 343 342 342 341 341 340 339 339 340 342 344 346
348 349 349 346 347 348 348 346 348 347 344 342 341 341 340 341 341 344 343 343 345 345 347 348 348 348 347 347 345 345 346 346 347 348 348 347 346 347 345 346 344 341 338 338 340 343 343 343 342 341 342 342 341 341 339 339 339 339 340 341 340 348
347 347 349 349 348 346 345 346 346 346 345 343 344 343 341 341 343 343 342 343 342 341 342 344 346 346 345 347 346 345 344 346 346 345 347 345 345 346 345 344 344 345 343 340 338 336 339 341 343 339 340 339 340 340 340 337 338 338 340 339 340 348
347 347 347 347 345 342 344 345 345 346 345 345 345 345 344 345 345 341 343 343 341 339 339 340 343 343 345 345 345 346 346 344 345 345 346 345 343 344 344 345 346 346 341 340 339 339 337 339 341 342 339 339 339 340 341 338 338 337 336 340 339 348
346 346 347 346 344 343 344 344 344 343 343 344 346 345 345 346 345 344 344 345 343 338 337 339 340 340 343 341 342 344 345 343 344 344 343 341 342 341 340 340 340 340 341 340 338 339 339 340 341 340 339 338 337 338 339 341 341 338 337 337 339 341
345 345 346 345 342 340 341 341 342 344 343 344 344 346 346 343 343 344 343 346 345 341 338 335 336 338 337 339 340 342 343 344 344 344 342 342 341 340 339 339 338 337 337 337 336 337 338 338 338 339 339 338 337 338 340 339 339 340 341 343 343 342
344 344 344 341 339 338 339 338 340 340 341 341 343 345 344 344 343 343 345 347 346 345 343 339 338 336 335 336 337 338 337 339 340 342 344 344 346 344 343 341 341 340 340 339 338 338 337 338 338 337 340 340 339 341 340 341 340 339 338 341 342 344
343 344 342 341 340 338 338 338 339 339 337 339 343 342 341 342 342 343 345 346 346 345 345 344 343 341 339 337 336 336 336 337 337 337 340 341 341 344 343 342 342 343 344 344 341 341 341 339 339 339 339 340 341 342 340 339 339 339 339 341 341 343
339 339 339 337 338 338 338 338 339 340 339 340 341 342 341 341 342 344 345 345 345 345 346 344 344 344 342 341 340 339 336 338 339 340 341 342 341 340 338 336 340 342 342 341 341 340 341 341 340 341 341 341 342 341 341 341 341 341 339 340 341 342
338 338 338 338 338 337 338 337 337 337 338 338 340 339 339 339 340 341 343 343 343 342 342 343 343 344 342 341 343 341 338 337 340 342 342 341 337 339 337 336 336 335 334 335 335 336 335 335 334 335 336 339 338 341 340 339 339 339 339 339 340 342
337 337 337 337 337 337 338 336 335 336 337 338 338 337 337 338 337 338 340 338 340 340 341 341 342 343 342 341 341 340 340 339 340 341 341 341 339 339 339 338 337 336 336 333 331 333 332 333 331 330 332 334 332 332 334 337 339 339 337 339 340 340
337 337 337 337 337 337 337 337 336 335 336 337 336 336 336 337 337 336 336 337 340 339 338 340 339 340 341 339 338 338 339 342 342 341 342 342 341 339 340 340 341 340 336 334 334 335 335 335 334 332 334 334 332 330 330 329 331 334 337 340 340 341
335 335 336 336 336 337 336 336 336 336 335 336 334 335 334 336 336 336 336 336 339 339 338 338 341 341 340 339 337 338 338 341 342 340 341 341 339 339 340 339 340 340 339 336 335 335 335 336 334 334 334 334 334 333 332 330 329 329 330 332 336 338
335 335 335 335 335 334 335 334 333 333 336 333 335 333 334 334 334 333 333 333 334 335 335 334 336 338 339 337 337 337 338 340 338 339 338 338 338 339 339 339 338 339 338 337 333 334 334 334 332 331 332 334 335 333 333 333 333 331 330 329 331 331
335 334 334 334 334 334 334 333 332 332 331 331 332 331 331 330 330 331 330 331 331 332 332 333 333 334 335 333 333 334 336 337 337 336 336 335 335 336 336 338 337 337 337 333 333 335 335 333 329 330 330 333 334 336 334 332 333 330 331 331 330 331
331 330 330 329 327 324 325 323 324 326 326 326 327 327 329 327 328 328 328 328 328 329 328 330 330 332 333 332 331 331 332 333 332 332 332 332 331 331 333 333 336 335 334 333 334 332 334 331 329 330 331 331 332 332 334 333 329 328 331 331 331 331
326 326 324 321 321 321 321 322 325 324 323 325 325 326 326 327 326 326 327 326 326 326 326 327 328 328 329 329 329 329 330 329 330 330 330 330 332 332 333 332 331 333 329 329 330 332 332 331 326 325 329 329 330 330 332 334 329 330 330 331 330 329
324 325 325 325 324 323 324 322 321 321 320 321 322 322 323 325 325 325 326 325 325 325 325 326 327 328 328 327 327 326 327 326 327 327 328 328 329 330 331 331 330 328 328 326 327 328 329 328 323 321 321 322 324 326 329 331 331 328 329 329 330 329
324 323 323 324 323 324 326 328 326 325 325 323 325 326 324 324 325 324 324 324 325 325 324 323 324 325 325 325 326 325 325 325 326 325 324 324 325 326 328 329 329 327 324 325 325 328 329 329 321 323 323 320 317 318 323 324 332 330 328 328 330 328
323 323 323 324 324 325 326 327 327 325 325 324 323 324 325 324 324 323 323 324 323 324 323 322 322 322 323 324 324 324 325 324 324 324 322 322 322 322 324 326 326 326 326 321 320 324 328 328 326 323 316 316 317 317 313 318 321 324 325 327 329 327
322 323 324 325 326 326 326 326 326 326 326 324 322 321 320 319 321 322 322 322 321 322 321 321 322 322 321 322 322 323 323 323 323 323 323 321 321 321 321 322 324 324 323 321 318 320 324 326 326 327 321 317 315 313 314 316 318 319 324 322 322 323
322 322 323 325 326 325 323 321 320 318 317 317 316 317 315 316 317 319 318 322 321 320 320 320 320 320 320 321 321 321 322 321 322 322 322 320 321 320 321 322 322 323 321 322 321 318 318 323 323 325 325 322 323 316 314 317 316 312 322 321 323 323
323 322 323 324 324 324 322 321 320 319 318 316 315 317 318 318 318 318 320 321 319 321 319 319 320 319 319 319 319 320 321 320 320 320 321 320 319 320 317 319 321 321 321 321 322 317 319 318 321 322 322 321 322 322 320 317 313 315 312 317 320 321
322 321 323 324 321 323 322 321 321 319 318 317 317 317 317 318 320 319 317 318 319 319 319 319 319 319 319 318 319 319 320 320 318 318 317 317 317 319 319 320 322 322 322 322 321 319 318 318 317 317 320 319 320 319 319 319 319 316 313 312 314 319
323 322 322 323 321 322 323 321 320 318 317 317 318 317 317 319 318 319 318 319 319 319 319 319 319 318 319 318 318 318 319 319 318 317 317 317 318 318 319 320 320 320 321 320 321 321 319 317 318 316 316 318 317 317 316 317 316 317 315 312 311 313
322 322 323 322 321 320 321 321 320 319 317 317 318 318 318 317 318 319 317 318 318 318 317 318 320 319 319 318 319 319 317 317 318 317 317 317 318 319 319 319 320 320 320 320 320 320 319 319 318 318 318 317 315 315 316 315 315 315 315 316 311 311
322 322 322 321 320 319 320 319 319 319 318 317 317 317 316 317 316 317 317 317 317 317 317 317 318 319 318 318 319 319 318 317 318 318 316 316 317 317 317 319 318 319 319 320 319 319 319 320 319 318 318 316 315 314 314 312 314 315 315 314 313 313
322 322 322 321 321 319 319 319 320 319 318 319 318 316 316 316 315 315 316 316 316 316 317 317 317 317 319 319 319 318 319 318 317 318 316 316 317 316 318 317 317 317 318 319 320 319 319 318 318 317 318 317 315 316 317 316 315 316 315 314 313 311
321 322 322 321 320 320 319 318 319 319 319 319 318 318 316 315 315 316 316 316 316 313 315 315 316 316 316 318 318 318 319 318 317 317 317 316 316 316 318 319 317 317 317 317 318 319 316 318 318 316 315 317 316 316 315 315 317 316 315 316 314 311
321 322 322 321 320 319 319 319 320 319 318 318 317 318 318 315 315 315 315 315 314 314 313 315 316 316 317 316 317 317 317 318 318 317 317 317 317 317 317 316 318 316 317 317 319 319 318 318 318 318 319 316 316 315 316 317 317 316 315 313 311 311
320 322 322 321 321 320 318 319 319 319 318 319 317 317 317 317 317 315 315 315 315 315 314 315 315 316 317 316 317 317 316 316 316 316 316 317 317 318 317 316 317 318 318 317 318 318 317 318 316 315 318 317 316 316 316 316 315 316 315 315 314 313
321 322 322 321 321 321 320 320 319 319 319 319 318 318 317 317 317 317 317 316 316 316 316 315 316 316 316 317 316 315 315 315 315 315 316 316 317 317 317 317 316 317 316 317 317 317 317 317 317 318 317 317 315 314 316 315 316 316 316 317 316 315
322 322 323 322 322 322 321 319 319 319 319 318 318 317 317 317 317 319 320 318 316 315 317 317 316 316 316 317 317 316 316 315 316 316 317 317 316 317 317 316 316 315 315 316 316 316 317 317 317 316 316 316 315 314 315 316 316 317 316 317 316 315
Wind_Speed
7 7 6 5 5 5 6 4 7 7 7 6 5 5 4 3 4 6 3 4 2 2 3 3 3 4 4 5 6 5 5 5 3 2 4 4 4 5 3 5 3 2 2 2 5 5 5 4 4 3 3 7 8 6 5 7 4 4 4 2 4 2
6 6 5 4 3 3 4 4 5 5 5 5 5 4 4 4 4 3 4 3 3 3 3 4 5 5 3 3 6 5 4 3 1 2 3 2 1 2 1 3 3 0 0 4 7 5 5 6 4 4 6 8 7 6 5 5 4 4 4 4 4 9
6 5 4 4 3 3 3 3 4 4 4 4 5 5 5 5 5 5 5 4 3 3 4 4 4 4 2 4 4 4 4 3 1 1 1 0 2 2 1 3 3 3 3 5 5 5 6 3 4 7 7 6 7 4 4 5 5 5 4 3 5 13
5 4 3 4 3 2 2 2 3 3 3 4 4 4 5 5 5 5 4 4 3 3 3 3 3 3 2 2 5 7 4 4 5 3 2 6 7 6 5 6 5 5 8 6 4 4 2 3 4 3 4 5 5 4 5 5 5 6 5 3 3 12
4 3 3 3 2 3 2 2 2 3 3 4 4 4 4 5 5 5 5 4 5 4 3 3 3 3 3 2 3 2 2 1 1 2 2 2 2 1 5 1 5 7 3 2 2 3 3 3 3 4 3 4 5 5 6 6 6 6 6 5 1 11
3 4 3 3 3 3 2 3 3 3 4 4 4 4 5 5 5 5 5 5 4 4 4 3 3 3 3 3 3 3 3 2 2 1 2 3 3 3 3 2 4 4 3 3 2 3 4 4 5 5 4 3 5 5 5 6 6 5 6 6 3 9
4 3 4 4 3 4 4 4 4 5 4 4 4 5 5 5 5 5 5 5 5 4 5 5 4 4 4 3 4 4 3 3 2 3 3 3 3 2 3 3 3 3 4 5 4 5 5 5 4 6 5 5 4 5 5 5 6 6 5 5 4 11
5 5 4 5 5 5 5 5 5 4 5 5 4 5 5 5 4 5 6 5 5 4 4 5 5 5 4 5 5 4 4 4 4 3 3 3 3 3 3 3 3 4 5 4 5 4 5 4 4 6 7 6 6 6 5 5 5 6 7 7 6 10
5 6 5 5 6 5 5 6 6 5 6 5 5 5 5 4 4 5 6 6 6 6 5 5 6 5 5 5 5 5 4 4 4 3 2 3 3 3 3 2 3 4 3 5 5 3 4 5 5 6 5 7 7 6 6 6 6 6 7 7 6 4
6 5 5 5 5 5 5 5 6 5 5 5 5 4 3 4 5 5 5 6 6 6 6 6 6 6 6 6 6 5 5 4 4 4 3 4 3 3 3 2 3 3 4 4 5 3 4 5 5 5 6 7 7 7 6 6 6 6 7 6 6 3
6 5 4 5 5 6 5 6 5 5 6 5 4 3 4 4 5 5 5 6 6 6 6 6 6 6 6 5 5 6 6 5 5 4 4 4 3 4 3 3 3 4 4 4 4 4 5 5 5 6 4 6 7 7 7 7 7 7 7 6 6 6
6 5 5 5 5 5 5 6 6 6 6 5 5 5 5 5 5 5 6 6 6 6 6 6 7 6 6 6 6 6 5 5 5 5 5 4 4 4 4 4 4 4 4 4 4 4 4 5 5 6 5 6 6 6 7 7 7 8 8 7 7 7
6 6 6 6 6 5 5 6 6 6 6 5 5 5 6 6 5 6 6 7 7 7 6 6 6 7 6 6 6 6 5 6 5 5 5 5 5 4 4 4 3 3 4 5 5 5 4 5 5 5 5 5 5 6 6 6 7 7 8 8 7 7
7 7 8 7 6 6 6 6 6 6 6 6 5 5 6 6 6 6 6 8 7 7 7 6 6 6 6 5 5 5 6 5 5 5 4 4 5 4 5 5 6 5 5 5 5 5 5 5 5 6 6 7 6 6 6 6 6 7 7 8 7 6
6 7 7 7 7 7 6 6 6 6 6 6 5 6 6 6 6 6 6 7 8 8 8 7 7 6 6 5 5 5 6 6 6 5 5 5 5 4 5 6 5 6 6 6 6 6 6 5 6 7 7 7 7 8 8 8 7 8 8 7 7 7
7 8 8 8 7 7 7 7 7 7 6 6 6 6 6 6 6 6 6 7 8 8 8 8 8 7 6 6 5 5 5 6 6 5 5 5 4 5 5 5 5 5 6 7 6 6 5 5 5 6 6 6 7 7 8 8 8 8 7 7 7 7
8 9 9 9 9 8 8 8 8 8 8 7 7 7 6 6 7 7 7 7 8 8 9 8 8 7 5 6 6 5 5 6 5 5 4 5 5 5 5 5 5 5 6 6 7 7 6 6 6 6 6 6 6 6 7 7 9 9 8 8 7 7
8 8 8 8 8 7 7 7 7 7 7 7 7 7 6 7 7 7 8 8 8 8 8 8 8 7 6 6 6 6 6 6 6 5 5 5 5 5 6 6 6 5 6 6 7 7 8 7 8 8 8 7 6 6 6 6 6 7 9 8 8 8
7 7 7 6 6 6 6 6 6 6 6 6 6 7 7 7 7 7 8 8 9 7 8 8 8 7 6 6 6 6 6 7 6 5 6 6 5 6 6 6 6 6 6 7 6 6 7 8 9 9 9 8 8 8 7 6 6 6 6 6 7 7
6 5 5 4 4 5 5 5 5 5 6 6 7 7 7 7 7 7 8 8 8 7 8 7 8 8 7 7 6 7 7 7 6 6 6 7 6 6 7 7 6 7 7 7 6 7 7 9 9 9 9 9 8 8 8 6 7 6 5 5 5 6
6 6 6 6 6 5 5 5 5 5 5 5 5 6 6 7 7 7 8 8 8 7 7 7 7 7 7 6 6 6 7 7 7 7 6 7 8 8 7 7 7 6 7 7 6 7 8 9 9 8 8 9 9 8 7 6 8 6 5 5 6 6
6 6 6 6 5 5 5 5 5 6 6 6 6 6 6 6 6 7 8 7 7 7 6 6 6 6 7 7 6 6 6 7 7 6 7 7 8 8 8 8 8 7 7 7 6 8 8 10 8 9 11 9 8 7 7 5 5 5 7 7 7 7
6 6 6 6 6 5 5 6 6 6 5 5 6 6 6 6 6 7 7 7 7 7 7 6 7 6 5 7 7 6 6 6 7 7 6 7 8 8 8 8 9 8 8 7 6 6 8 9 9 10 9 9 8 10 7 5 2 8 9 10 6 6
7 7 7 6 6 7 6 6 6 7 7 7 6 5 5 6 6 6 7 7 7 7 7 7 8 7 7 7 7 7 6 6 6 7 6 6 7 8 7 7 8 8 8 8 7 7 7 8 8 9 8 8 9 8 9 6 10 9 11 7 6 8
7 7 7 7 7 5 5 5 4 4 5 5 6 6 6 6 6 6 6 7 7 7 8 7 7 8 7 7 7 7 7 6 6 7 7 6 7 7 7 7 7 7 8 7 8 7 6 7 7 6 7 7 7 6 8 11 13 11 6 8 11 10
7 7 7 8 7 7 8 7 7 6 6 6 6 6 7 7 6 7 7 6 7 7 7 7 7 7 8 7 7 7 7 7 6 6 6 6 7 7 7 8 8 7 7 7 7 8 7 6 6 5 5 5 5 7 9 11 11 10 10 10 9 9
7 7 6 7 8 7 7 7 8 8 7 7 7 6 6 6 6 6 6 6 6 6 7 7 7 7 7 7 7 7 7 7 7 6 6 5 6 7 8 8 8 7 8 7 7 7 8 7 7 5 6 8 8 7 9 9 9 11 12 10 9 10
6 7 6 6 8 7 7 7 8 8 7 7 6 6 6 6 6 6 6 7 6 6 6 7 6 7 7 7 7 7 6 6 7 7 6 6 7 7 7 7 7 7 7 7 7 7 8 7 7 7 7 8 8 9 9 9 10 10 11 13 12 10
5 5 6 6 6 7 6 7 7 7 7 6 6 6 5 6 5 5 6 5 5 5 5 6 7 7 7 8 8 7 6 7 7 8 7 7 7 8 8 8 7 7 7 7 6 7 7 7 8 8 8 8 9 9 9 9 10 9 9 11 12 12
4 4 5 6 6 7 7 6 7 7 8 7 6 5 5 5 5 5 6 6 5 5 5 5 6 6 7 7 7 7 7 7 7 7 7 7 7 7 7 7 7 7 7 8 6 6 7 7 7 7 8 8 8 8 8 8 8 9 9 10 12 13
2 3 4 5 5 6 6 6 6 6 7 7 7 6 6 6 5 6 6 6 6 6 5 6 5 5 6 7 6 6 6 7 7 7 7 7 7 7 7 7 7 7 7 7 7 7 7 7 7 8 8 8 8 8 8 9 9 9 10 10 11 12
2 2 3 4 4 5 5 5 4 5 6 5 6 6 7 6 7 7 6 6 5 5 5 5 5 5 5 6 5 6 7 7 7 7 7 7 7 8 7 7 6 6 6 7 7 7 7 7 8 7 8 8 8 8 7 8 9 9 9 10 11 12
2 2 2 2 4 3 3 4 3 4 4 4 6 6 7 7 6 6 5 6 6 6 5 5 5 6 6 7 6 6 6 7 7 7 7 8 8 8 6 7 6 6 7 7 7 7 7 7 8 8 8 8 8 8 8 8 8 9 9 9 10 11
1 1 2 1 2 2 3 2 2 3 4 5 5 6 5 6 6 5 5 5 6 6 6 6 6 6 6 7 6 7 7 6 7 7 8 8 7 7 7 7 7 7 8 7 6 7 7 8 7 8 7 8 8 8 9 8 8 8 9 10 10 11
1 0 1 1 0 1 2 2 3 3 4 5 5 5 5 4 5 6 5 5 5 5 5 6 6 6 6 7 6 7 7 6 7 7 7 7 6 6 6 7 6 6 7 7 8 8 8 8 8 9 9 8 8 8 8 8 9 9 9 10 10 10
2 2 2 2 1 0 1 1 2 4 4 5 5 5 4 4 4 4 5 5 5 5 5 6 5 5 6 6 6 6 6 6 6 6 6 6 6 5 6 6 6 6 7 6 7 9 8 8 9 9 9 8 8 8 8 9 9 9 9 9 10 10
4 4 4 3 3 1 0 1 2 3 4 5 5 5 4 4 4 3 3 4 4 5 5 5 4 5 5 5 5 5 5 5 5 5 5 5 5 5 6 6 6 7 7 7 7 8 7 8 8 9 8 9 9 9 8 8 9 9 9 9 9 9
Wind_Direction
53 48 49 51 60 65 64 119 113 100 92 74 73 70 76 114 129 93 74 81 137 35 61 44 64 58 88 70 69 81 96 99 93 86 64 53 23 7 73 158 195 261 310 333 263 248 241 235 218 228 260 257 266 245 252 259 272 264 265 179 188 177
66 59 58 58 56 61 86 72 76 86 77 96 93 99 80 59 60 71 94 74 41 44 29 52 34 23 48 50 85 45 69 79 77 119 72 82 55 354 304 154 200 218 207 223 251 257 240 208 230 241 242 250 240 245 231 253 261 268 276 250 235 122
54 61 74 76 74 81 77 84 92 97 104 86 80 69 64 63 48 50 46 58 56 42 38 50 46 43 32 74 75 56 54 57 49 67 123 158 227 218 222 172 149 206 246 250 253 247 250 240 190 189 235 248 269 264 279 282 269 265 257 279 269 125
48 53 52 65 66 73 81 86 83 84 85 87 77 72 68 50 49 39 51 52 61 59 59 75 93 90 138 83 137 152 144 153 174 166 260 227 194 198 230 223 222 223 213 218 227 233 240 240 268 256 248 260 270 277 269 261 267 264 264 237 248 139
48 49 52 67 70 58 52 69 66 71 70 62 64 65 65 61 49 34 42 51 53 51 56 60 58 61 46 68 45 36 160 59 22 38 281 351 318 42 235 189 195 205 236 240 239 254 264 272 259 260 267 273 277 279 276 266 265 277 269 253 219 156
66 52 46 56 49 60 27 40 50 47 59 61 59 58 53 56 51 39 33 43 41 50 50 52 55 52 58 62 62 68 61 53 36 30 355 354 11 337 334 338 329 328 312 283 248 246 257 253 255 249 256 257 265 272 272 282 281 279 280 284 223 154
43 52 48 29 35 40 42 41 41 37 27 52 49 47 52 50 52 41 34 31 27 37 42 45 47 49 58 48 54 51 55 51 41 43 35 7 9 358 342 343 328 323 324 302 301 281 245 239 263 276 263 260 265 265 267 270 276 272 270 263 259 159
40 23 28 34 40 46 46 45 47 47 47 30 29 43 45 44 49 50 32 33 23 20 40 43 42 40 39 42 50 47 45 46 49 40 45 21 7 10 357 347 340 327 311 308 297 295 297 286 260 260 273 270 261 253 253 270 275 279 280 279 271 171
36 30 25 30 42 42 41 40 39 40 45 28 40 35 29 35 34 50 39 28 25 21 18 32 28 36 39 36 40 36 35 41 37 42 11 50 11 337 355 342 325 308 314 310 292 297 308 304 296 283 277 271 271 282 269 263 264 266 270 276 276 191
34 28 30 36 41 46 44 44 43 41 38 38 41 30 26 45 43 27 37 23 27 29 27 22 29 21 27 30 30 31 38 32 34 25 4 21 15 335 336 341 310 310 309 299 307 339 301 280 281 283 288 307 302 292 291 273 269 269 275 273 269 241
51 45 49 53 54 50 49 51 48 49 42 35 25 37 46 42 41 43 34 28 24 27 23 32 26 18 24 24 28 25 22 21 29 21 13 13 358 348 333 338 329 324 321 320 313 301 291 303 297 287 305 292 291 293 295 296 290 278 273 267 266 269
54 57 57 60 59 56 51 52 47 51 48 38 26 36 45 46 48 45 37 34 32 25 20 28 25 23 21 26 26 23 29 18 20 17 18 12 4 348 347 339 337 327 321 298 311 307 317 288 302 307 303 288 293 294 288 289 286 288 288 288 282 270
52 53 52 53 55 52 52 52 55 55 51 38 33 37 36 37 37 47 45 34 32 31 25 22 21 18 16 29 30 20 21 19 20 14 13 2 351 340 347 348 352 332 326 319 318 324 314 312 303 307 302 302 290 274 277 281 282 281 279 276 277 277
57 58 56 55 51 52 49 53 53 56 49 43 42 40 40 39 39 37 42 37 33 29 28 26 19 22 14 21 25 28 15 19 14 2 7 360 347 353 353 352 347 336 342 325 323 328 321 317 319 321 314 315 302 304 297 285 285 281 276 274 270 273
63 66 63 61 62 59 49 54 60 58 53 44 46 40 35 35 39 39 39 43 35 33 29 26 24 18 14 13 20 24 17 19 5 359 3 13 342 354 2 352 359 344 338 327 330 332 324 322 323 317 315 310 308 312 305 300 297 289 289 290 287 272
75 70 66 65 66 62 62 59 57 59 58 52 50 48 45 41 37 38 42 41 41 37 34 30 29 22 16 15 16 19 23 11 359 360 3 358 344 357 4 350 354 343 335 333 326 325 323 325 314 313 309 310 311 308 306 304 299 295 291 285 281 287
72 70 69 70 67 64 61 62 59 58 56 52 48 49 50 43 40 39 37 38 37 35 32 30 27 26 21 19 19 20 20 8 3 4 354 349 357 358 357 353 345 343 335 326 319 327 327 326 320 308 304 298 308 313 301 303 298 299 301 288 278 274
72 70 67 65 62 59 59 60 60 59 55 54 49 46 47 44 43 40 37 36 31 32 31 29 25 22 21 16 22 21 19 13 9 8 3 355 7 1 359 356 346 343 341 326 326 334 330 329 319 313 309 311 312 300 297 288 292 291 286 290 294 293
69 70 71 72 77 82 81 71 66 62 61 59 59 49 41 43 42 41 38 37 33 28 30 25 27 27 20 16 22 24 20 14 14 15 9 3 1 8 358 354 347 343 341 332 330 333 334 329 320 314 311 315 307 295 292 294 290 278 268 292 298 300
64 66 75 69 65 62 53 49 58 64 61 52 52 49 43 45 41 39 37 33 32 29 26 22 26 25 22 18 19 25 22 12 15 17 15 12 7 7 1 356 352 341 343 334 334 339 342 333 316 309 319 312 308 305 299 309 299 299 303 291 307 315
60 50 46 51 45 40 50 66 62 59 60 57 53 60 54 42 41 40 29 26 24 22 24 24 22 25 21 22 19 22 20 17 11 19 12 14 9 4 4 0 354 344 342 344 339 344 356 331 318 318 321 310 309 299 303 293 306 297 302 312 318 321
68 62 56 52 56 48 39 39 38 42 42 40 42 40 43 44 39 41 28 25 19 11 12 26 25 28 29 21 21 20 19 21 11 15 11 10 8 4 3 2 358 351 347 346 342 355 356 340 339 337 327 325 307 317 309 293 296 320 321 313 309 293
69 66 59 48 47 49 48 38 37 41 37 72 56 40 45 39 40 40 32 24 28 21 12 22 20 28 27 27 19 16 18 17 17 9 6 11 7 5 4 1 359 358 349 343 341 3 1 0 337 336 318 317 329 324 318 295 316 325 315 303 295 290
77 69 63 55 56 59 56 59 59 60 57 37 36 52 55 51 49 38 42 36 36 31 31 28 25 24 35 29 21 15 14 15 16 10 2 7 5 3 0 360 0 354 359 341 346 351 357 1 352 344 337 336 319 310 311 344 331 321 308 309 312 312
74 66 58 49 45 47 68 74 72 74 62 62 52 45 38 46 38 43 43 40 38 35 32 33 33 28 30 33 25 19 8 11 16 9 1 359 2 356 354 350 5 353 355 354 338 337 339 357 356 356 341 330 329 315 335 329 331 311 328 325 310 309
68 58 54 49 46 50 53 50 48 42 40 42 49 41 42 27 31 35 37 40 38 25 33 26 22 26 23 21 20 13 8 356 8 6 5 358 1 352 347 349 359 348 340 353 343 323 338 338 347 328 352 337 320 313 317 323 316 313 320 306 312 310
62 60 52 48 44 50 55 57 51 50 48 44 48 54 47 42 29 39 36 30 43 27 22 30 22 19 21 20 17 11 11 3 1 6 358 5 359 357 347 356 354 344 340 338 339 330 335 332 335 319 351 327 316 303 302 304 312 312 307 313 310 309
63 56 48 44 56 49 56 58 58 54 51 51 47 54 49 51 44 41 38 29 27 34 29 22 23 20 11 18 13 11 12 16 3 0 348 4 355 357 349 350 352 344 341 338 340 335 333 331 337 328 342 324 318 308 298 299 290 298 303 304 307 305
63 58 57 54 54 57 56 54 51 50 50 45 43 35 46 37 37 23 32 23 21 18 27 23 18 13 11 14 9 6 4 13 7 360 346 1 354 351 350 344 348 344 350 342 343 339 329 335 330 332 331 324 323 317 315 304 308 302 301 305 303 308
70 59 61 63 62 59 55 53 54 50 43 42 30 31 25 27 15 15 8 18 7 15 7 19 12 15 8 12 7 5 1 3 8 358 350 353 347 341 346 343 346 348 341 342 340 341 333 330 330 327 324 323 320 322 319 323 317 317 309 305 304 306
74 75 67 64 60 62 56 47 47 42 39 31 24 22 15 15 8 15 7 14 10 11 5 12 2 15 9 6 4 4 360 354 1 353 349 343 345 340 346 338 346 346 345 344 341 339 330 334 332 329 327 330 326 327 330 322 321 324 318 310 309 306
135 84 74 67 66 57 55 54 44 29 32 23 18 10 11 8 6 13 7 15 9 5 9 7 6 360 13 355 3 357 354 352 353 349 348 342 341 340 340 337 345 344 345 342 343 344 335 341 337 330 332 332 327 324 321 317 325 320 317 313 309 305
118 100 73 62 56 67 59 50 27 21 17 14 13 6 4 7 11 8 7 11 4 7 3 0 6 355 1 354 357 354 352 350 348 347 343 341 338 338 346 327 336 337 340 342 347 341 332 340 332 331 332 325 319 321 319 325 319 318 314 311 307 306
120 72 48 48 40 64 75 48 34 10 7 1 6 2 6 6 9 9 5 10 4 8 1 358 360 360 355 350 353 346 348 344 348 343 339 339 337 335 349 334 330 344 334 334 338 331 326 331 324 322 326 319 321 320 315 318 316 309 312 312 313 312
245 114 310 315 229 33 55 47 23 18 6 358 355 0 7 9 5 2 4 3 9 3 5 359 357 358 350 343 351 344 343 346 350 342 341 338 335 343 350 342 342 345 331 329 332 326 321 323 318 323 323 315 317 307 317 314 311 311 311 311 309 310
287 294 281 279 278 302 47 32 42 18 11 6 359 360 2 8 359 355 356 357 6 6 9 359 356 353 348 344 349 344 343 355 348 345 345 344 338 350 348 336 338 336 329 341 328 323 324 320 319 320 313 318 312 313 313 310 312 313 308 307 303 302
258 260 261 268 275 262 230 328 24 17 12 6 3 0 358 356 350 343 348 356 3 6 3 360 355 349 344 348 343 347 342 346 348 344 348 346 343 347 339 333 334 330 330 338 326 325 323 317 321 319 315 317 315 313 310 315 310 309 308 304 303 302